Location: D�pe
(52.6057°N, 8.1808°E)
Time: 07:21:25
(UTC+00:00)

Ariane Rocket - Pass Details

Date: 29 October 2020
Orbit: 759 x 771 km, 98.7° (Epoch: 01 December)

Event Time Altitude Azimuth Distance (km) Brightness Sun altitude
Exits shadow 19:33:52 46° 307° (NW) 1,034 3.9 -32.3°
Drops below altitude 10° 19:37:44 10° 338° (NNW) 2,325 6.0 -32.8°
Sets 19:40:06 0° 342° (NNW) 3,256 6.8 -33.1°
